| time (UTC) | temp F | wind direction | speed knots | gust knots | rain 1hr in | rain 24hr in | rain mn in | humidity % | barometer mb |
| 20260906232320 | 64 | 12 | 4.3 | 7.0 | 0.00 | 0.01 | 0.01 | 76 | 1015.6 |
| 20260906231815 | 64 | 349 | 2.6 | 2.6 | 0.00 | 0.01 | 0.01 | 76 | 1015.6 |
| 20260906231310 | 65 | 318 | 4.3 | 5.2 | 0.00 | 0.01 | 0.01 | 75 | 1015.8 |
| 20260906230809 | 64 | 281 | 3.5 | 4.3 | 0.00 | 0.01 | 0.01 | 78 | 1015.8 |
| 20260906230305 | 63 | 308 | 4.3 | 5.2 | 0.00 | 0.01 | 0.01 | 78 | 1015.9 |
| 20260906225802 | 63 | 296 | 2.6 | 2.6 | 0.00 | 0.01 | 0.01 | 79 | 1016.0 |
| 20260906225259 | 63 | 303 | 5.2 | 6.1 | 0.00 | 0.01 | 0.01 | 80 | 1016.2 |
| 20260906224754 | 63 | 293 | 6.1 | 6.1 | 0.00 | 0.01 | 0.01 | 79 | 1016.2 |
| 20260906224250 | 64 | 296 | 4.3 | 5.2 | 0.00 | 0.01 | 0.01 | 79 | 1016.4 |
| 20260906223747 | 64 | 1 | 2.6 | 2.6 | 0.00 | 0.01 | 0.01 | 77 | 1016.3 |
| 20260906223243 | 64 | 43 | 2.6 | 2.6 | 0.00 | 0.01 | 0.01 | 79 | 1016.4 |
| 20260906222740 | 64 | 40 | 0.9 | 1.7 | 0.00 | 0.01 | 0.01 | 79 | 1016.4 |
| 20260906222234 | 63 | 38 | 2.6 | 2.6 | 0.00 | 0.01 | 0.01 | 79 | 1016.5 |
| 20260906221732 | 64 | 28 | 2.6 | 2.6 | 0.00 | 0.01 | 0.01 | 79 | 1016.3 |
| 20260906221232 | 64 | 30 | 3.5 | 4.3 | 0.00 | 0.01 | 0.01 | 79 | 1016.0 |
| 20260906220727 | 63 | 31 | 2.6 | 2.6 | 0.00 | 0.01 | 0.01 | 79 | 1016.3 |
| 20260906220222 | 64 | 60 | 4.3 | 5.2 | 0.00 | 0.01 | 0.01 | 78 | 1016.2 |
| 20260906215721 | 64 | 47 | 5.2 | 7.0 | 0.00 | 0.01 | 0.01 | 78 | 1016.2 |
| 20260906215220 | 64 | 38 | 3.5 | 4.3 | 0.00 | 0.01 | 0.01 | 78 | 1016.3 |
| 20260906214719 | 64 | 40 | 4.3 | 6.1 | 0.00 | 0.01 | 0.01 | 79 | 1016.0 |
| 20260906214215 | 64 | 16 | 3.5 | 5.2 | 0.00 | 0.01 | 0.01 | 78 | 1016.3 |
| 20260906213713 | 63 | 27 | 4.3 | 6.1 | 0.00 | 0.01 | 0.01 | 79 | 1016.2 |
| 20260906213208 | 64 | 39 | 6.1 | 7.8 | 0.00 | 0.01 | 0.01 | 78 | 1016.3 |
| 20260906212705 | 64 | 45 | 5.2 | 7.0 | 0.00 | 0.01 | 0.01 | 78 | 1016.3 |
| 20260906212201 | 64 | 59 | 3.5 | 4.3 | 0.00 | 0.01 | 0.01 | 78 | 1016.2 |
| 20260906211700 | 64 | 35 | 6.1 | 6.1 | 0.00 | 0.01 | 0.01 | 78 | 1016.2 |
| 20260906211155 | 64 | 51 | 7.0 | 7.0 | 0.00 | 0.01 | 0.01 | 78 | 1016.3 |
| 20260906210651 | 64 | 43 | 5.2 | 7.8 | 0.00 | 0.01 | 0.01 | 77 | 1016.3 |
| 20260906210151 | 64 | 36 | 5.2 | 6.1 | 0.00 | 0.01 | 0.01 | 77 | 1016.2 |
| 20260906205647 | 64 | 62 | 3.5 | 5.2 | 0.00 | 0.01 | 0.01 | 78 | 1016.2 |
| 20260906205143 | 64 | 62 | 6.1 | 7.0 | 0.00 | 0.01 | 0.01 | 77 | 1016.5 |
| 20260906204642 | 64 | 57 | 5.2 | 6.1 | 0.00 | 0.01 | 0.01 | 77 | 1016.3 |
| 20260906204137 | 64 | 29 | 5.2 | 6.1 | 0.00 | 0.01 | 0.01 | 77 | 1016.5 |
| 20260906203638 | 64 | 36 | 5.2 | 6.1 | 0.00 | 0.01 | 0.01 | 76 | 1016.5 |
| 20260906203138 | 64 | 58 | 2.6 | 4.3 | 0.00 | 0.01 | 0.01 | 77 | 1016.5 |
| 20260906202635 | 64 | 49 | 7.0 | 7.8 | 0.00 | 0.01 | 0.01 | 76 | 1016.2 |
| 20260906202134 | 64 | 43 | 4.3 | 5.2 | 0.00 | 0.01 | 0.01 | 76 | 1016.3 |
| 20260906201629 | 63 | 16 | 4.3 | 6.1 | 0.00 | 0.01 | 0.01 | 77 | 1016.4 |
| 20260906201128 | 63 | 58 | 4.3 | 5.2 | 0.00 | 0.01 | 0.01 | 77 | 1016.5 |
| 20260906200625 | 63 | 25 | 2.6 | 2.6 | 0.00 | 0.01 | 0.01 | 78 | 1016.7 |
| 20260906200120 | 63 | 26 | 3.5 | 5.2 | 0.00 | 0.01 | 0.01 | 77 | 1016.5 |
| 20260906195615 | 63 | 28 | 5.2 | 6.1 | 0.00 | 0.01 | 0.01 | 76 | 1016.7 |
| 20260906195111 | 63 | 31 | 3.5 | 4.3 | 0.00 | 0.01 | 0.01 | 76 | 1016.5 |
| 20260906194607 | 63 | 25 | 4.3 | 5.2 | 0.00 | 0.01 | 0.01 | 76 | 1016.5 |
| 20260906194103 | 63 | 10 | 5.2 | 6.1 | 0.00 | 0.01 | 0.01 | 76 | 1016.6 |
| 20260906193602 | 63 | 2 | 3.5 | 5.2 | 0.00 | 0.01 | 0.01 | 77 | 1016.7 |
| 20260906193058 | 63 | 59 | 4.3 | 6.1 | 0.00 | 0.01 | 0.01 | 76 | 1016.7 |
| 20260906192553 | 63 | 70 | 6.1 | 7.0 | 0.00 | 0.01 | 0.01 | 76 | 1016.6 |
| 20260906192052 | 63 | 31 | 5.2 | 7.0 | 0.00 | 0.01 | 0.01 | 76 | 1016.5 |
| 20260906191548 | 63 | 83 | 3.5 | 5.2 | 0.00 | 0.01 | 0.01 | 76 | 1016.6 |
| 20260906191047 | 63 | 31 | 4.3 | 6.1 | 0.00 | 0.01 | 0.01 | 75 | 1016.6 |
| 20260906190546 | 63 | 33 | 7.0 | 7.8 | 0.00 | 0.01 | 0.01 | 75 | 1016.8 |
| 20260906190041 | 63 | 38 | 8.7 | 11.3 | 0.00 | 0.01 | 0.01 | 74 | 1016.7 |
| 20260906185540 | 64 | 42 | 9.6 | 12.2 | 0.00 | 0.01 | 0.01 | 73 | 1016.6 |
| 20260906185039 | 64 | 43 | 7.0 | 8.7 | 0.00 | 0.01 | 0.01 | 73 | 1016.6 |
| 20260906184534 | 64 | 28 | 9.6 | 12.2 | 0.00 | 0.01 | 0.01 | 72 | 1016.8 |
| 20260906184030 | 63 | 74 | 7.8 | 8.7 | 0.00 | 0.01 | 0.01 | 74 | 1016.8 |
| 20260906183526 | 63 | 32 | 7.8 | 8.7 | 0.00 | 0.01 | 0.01 | 74 | 1016.7 |
| 20260906183021 | 62 | 26 | 7.8 | 8.7 | 0.00 | 0.01 | 0.01 | 75 | 1016.9 |
| 20260906182516 | 63 | 14 | 6.1 | 8.7 | 0.00 | 0.01 | 0.01 | 77 | 1016.9 |
| 20260906182012 | 63 | 27 | 6.1 | 8.7 | 0.00 | 0.01 | 0.01 | 79 | 1016.9 |
| 20260906181508 | 62 | 12 | 10.4 | 13.0 | 0.00 | 0.01 | 0.01 | 80 | 1016.5 |
| 20260906181003 | 61 | 39 | 7.8 | 8.7 | 0.00 | 0.01 | 0.01 | 84 | 1016.6 |
| 20260906180458 | 60 | 44 | 7.8 | 9.6 | 0.00 | 0.01 | 0.01 | 83 | 1016.9 |
| 20260906175956 | 60 | 32 | 8.7 | 12.2 | 0.00 | 0.01 | 0.01 | 83 | 1016.9 |
| 20260906175451 | 60 | 50 | 7.8 | 8.7 | 0.00 | 0.01 | 0.01 | 87 | 1017.0 |
| 20260906174950 | 59 | 52 | 8.7 | 9.6 | 0.00 | 0.01 | 0.01 | 89 | 1016.9 |
| 20260906174449 | 58 | 72 | 7.8 | 8.7 | 0.00 | 0.01 | 0.01 | 93 | 1017.3 |
| 20260906173944 | 58 | 58 | 3.5 | 4.3 | 0.00 | 0.01 | 0.01 | 94 | 1017.9 |
| 20260906173439 | 58 | 344 | 0.9 | 0.9 | 0.00 | 0.01 | 0.01 | 94 | 1018.2 |
| 20260906172939 | 57 | 341 | 2.6 | 2.6 | 0.00 | 0.01 | 0.01 | 94 | 1018.4 |
| 20260906172435 | 57 | 283 | 2.6 | 2.6 | 0.00 | 0.01 | 0.01 | 94 | 1018.7 |
| 20260906171930 | 57 | 277 | 1.7 | 1.7 | 0.00 | 0.01 | 0.01 | 94 | 1018.6 |
| 20260906171425 | 58 | 256 | 2.6 | 2.6 | 0.00 | 0.01 | 0.01 | 94 | 1018.8 |
| 20260906170921 | 57 | 267 | 2.6 | 2.6 | 0.00 | 0.01 | 0.01 | 94 | 1018.8 |
| 20260906170417 | 57 | 246 | 0.0 | 0.9 | 0.00 | 0.01 | 0.01 | 93 | 1018.7 |
| 20260906165913 | 57 | 252 | 0.0 | 0.0 | 0.00 | 0.01 | 0.01 | 93 | 1018.8 |
| 20260906165412 | 57 | 249 | 0.0 | 0.0 | 0.00 | 0.01 | 0.01 | 93 | 1018.6 |
| 20260906164907 | 57 | 279 | 0.9 | 0.9 | 0.00 | 0.01 | 0.01 | 93 | 1018.6 |
| 20260906164406 | 57 | 330 | 0.0 | 0.0 | 0.00 | 0.01 | 0.01 | 93 | 1018.7 |
| 20260906163903 | 57 | 331 | 0.0 | 0.0 | 0.00 | 0.01 | 0.01 | 94 | 1018.6 |
| 20260906163358 | 57 | 358 | 0.9 | 0.9 | 0.00 | 0.01 | 0.01 | 94 | 1018.7 |
| 20260906162856 | 57 | 320 | 0.0 | 0.0 | 0.00 | 0.01 | 0.01 | 94 | 1018.7 |
| 20260906162355 | 56 | 33 | 1.7 | 1.7 | 0.00 | 0.01 | 0.01 | 94 | 1018.5 |
| 20260906161850 | 56 | 333 | 0.9 | 0.9 | 0.00 | 0.01 | 0.01 | 94 | 1018.5 |
| 20260906161350 | 56 | 351 | 2.6 | 2.6 | 0.00 | 0.01 | 0.01 | 94 | 1018.6 |
| 20260906160849 | 56 | 31 | 2.6 | 2.6 | 0.00 | 0.01 | 0.01 | 94 | 1018.2 |
| 20260906160342 | 56 | 321 | 1.7 | 1.7 | 0.00 | 0.01 | 0.01 | 94 | 1018.6 |
| 20260906155840 | 55 | 349 | 5.2 | 5.2 | 0.00 | 0.01 | 0.01 | 94 | 1018.6 |
| 20260906155334 | 55 | 357 | 5.2 | 7.0 | 0.00 | 0.01 | 0.01 | 94 | 1018.6 |
| 20260906154831 | 55 | 294 | 4.3 | 5.2 | 0.05 | 0.01 | 0.01 | 94 | 1018.8 |
| 20260906154325 | 55 | 322 | 3.5 | 5.2 | 0.05 | 0.01 | 0.01 | 94 | 1018.9 |
| 20260906153824 | 55 | 292 | 5.2 | 6.1 | 0.00 | 0.00 | 0.00 | 94 | 1019.0 |
| 20260906153324 | 55 | 300 | 6.1 | 7.0 | 0.00 | 0.00 | 0.00 | 93 | 1019.1 |
| 20260906152819 | 55 | 300 | 7.8 | 8.7 | 0.00 | 0.00 | 0.00 | 92 | 1019.2 |
| 20260906152314 | 55 | 314 | 7.0 | 7.8 | 0.00 | 0.00 | 0.00 | 91 | 1019.1 |
| 20260906151813 | 55 | 337 | 7.8 | 9.6 | 0.00 | 0.00 | 0.00 | 90 | 1019.1 |
| 20260906151309 | 55 | 323 | 9.6 | 12.2 | 0.00 | 0.00 | 0.00 | 90 | 1019.2 |
| 20260906150804 | 55 | 296 | 9.6 | 12.2 | 0.00 | 0.00 | 0.00 | 90 | 1019.3 |
| 20260906150300 | 55 | 288 | 7.0 | 7.8 | 0.00 | 0.00 | 0.00 | 90 | 1019.6 |
| 20260906145759 | 55 | 294 | 6.1 | 7.0 | 0.00 | 0.00 | 0.00 | 90 | 1019.1 |
| 20260906145257 | 55 | 302 | 4.3 | 5.2 | 0.00 | 0.00 | 0.00 | 90 | 1019.2 |
| 20260906144753 | 55 | 295 | 7.8 | 9.6 | 0.00 | 0.00 | 0.00 | 89 | 1019.6 |
| 20260906144248 | 57 | 284 | 12.2 | 13.9 | 0.00 | 0.00 | 0.00 | 89 | 1019.7 |
| 20260906143747 | 59 | 289 | 5.2 | 6.1 | 0.00 | 0.00 | 0.00 | 90 | 1019.6 |
| 20260906143245 | 59 | 305 | 2.6 | 2.6 | 0.00 | 0.00 | 0.00 | 89 | 1019.3 |
| 20260906142744 | 59 | 325 | 1.7 | 4.3 | 0.00 | 0.00 | 0.00 | 89 | 1019.1 |
| 20260906142239 | 59 | 18 | 4.3 | 5.2 | 0.00 | 0.00 | 0.00 | 89 | 1019.0 |
| 20260906141738 | 58 | 50 | 3.5 | 4.3 | 0.00 | 0.00 | 0.00 | 89 | 1018.9 |
| 20260906141233 | 58 | 43 | 3.5 | 4.3 | 0.00 | 0.00 | 0.00 | 90 | 1019.0 |
| 20260906140732 | 58 | 49 | 4.3 | 6.1 | 0.00 | 0.00 | 0.00 | 90 | 1018.9 |
| 20260906140227 | 58 | 29 | 4.3 | 4.3 | 0.00 | 0.00 | 0.00 | 89 | 1018.8 |
| 20260906135724 | 58 | 31 | 2.6 | 2.6 | 0.00 | 0.00 | 0.00 | 89 | 1019.3 |
| 20260906135220 | 58 | 19 | 3.5 | 4.3 | 0.00 | 0.00 | 0.00 | 89 | 1019.3 |
| 20260906134716 | 59 | 18 | 3.5 | 4.3 | 0.00 | 0.00 | 0.00 | 89 | 1019.0 |
| 20260906134211 | 59 | 357 | 0.9 | 1.7 | 0.00 | 0.00 | 0.00 | 89 | 1018.8 |
| 20260906133706 | 59 | 53 | 5.2 | 5.2 | 0.00 | 0.00 | 0.00 | 89 | 1018.7 |
| 20260906133201 | 58 | 42 | 5.2 | 6.1 | 0.00 | 0.00 | 0.00 | 89 | 1018.6 |
| 20260906132657 | 58 | 50 | 7.0 | 7.8 | 0.00 | 0.00 | 0.00 | 90 | 1018.4 |
| 20260906132152 | 58 | 35 | 6.1 | 8.7 | 0.00 | 0.00 | 0.00 | 91 | 1018.4 |
| 20260906131648 | 57 | 353 | 3.5 | 4.3 | 0.00 | 0.00 | 0.00 | 91 | 1018.8 |
| 20260906131142 | 57 | 18 | 2.6 | 2.6 | 0.00 | 0.00 | 0.00 | 91 | 1018.8 |
| 20260906130638 | 57 | 5 | 2.6 | 2.6 | 0.00 | 0.00 | 0.00 | 92 | 1018.9 |
| 20260906130133 | 57 | 43 | 3.5 | 4.3 | 0.00 | 0.00 | 0.00 | 91 | 1018.9 |
| 20260906125631 | 57 | 51 | 5.2 | 6.1 | 0.00 | 0.00 | 0.00 | 91 | 1019.0 |
| 20260906125129 | 57 | 51 | 4.3 | 5.2 | 0.00 | 0.00 | 0.00 | 92 | 1019.0 |
| 20260906124625 | 57 | 67 | 4.3 | 5.2 | 0.00 | 0.00 | 0.00 | 92 | 1018.9 |
| 20260906124120 | 57 | 58 | 5.2 | 6.1 | 0.00 | 0.00 | 0.00 | 92 | 1018.9 |
| 20260906123620 | 56 | 32 | 5.2 | 7.0 | 0.00 | 0.00 | 0.00 | 92 | 1019.0 |
| 20260906123115 | 56 | 54 | 4.3 | 6.1 | 0.00 | 0.00 | 0.00 | 92 | 1018.8 |
| 20260906122614 | 56 | 47 | 1.7 | 1.7 | 0.00 | 0.00 | 0.00 | 92 | 1018.8 |
| 20260906122110 | 56 | 69 | 3.5 | 5.2 | 0.00 | 0.00 | 0.00 | 92 | 1018.7 |
| 20260906121606 | 56 | 38 | 1.7 | 2.6 | 0.00 | 0.00 | 0.00 | 92 | 1018.7 |
| 20260906121102 | 56 | 27 | 4.3 | 6.1 | 0.00 | 0.00 | 0.00 | 92 | 1018.7 |
| 20260906120557 | 56 | 28 | 4.3 | 4.3 | 0.00 | 0.00 | 0.00 | 92 | 1018.7 |
| 20260906120055 | 56 | 352 | 4.3 | 5.2 | 0.00 | 0.00 | 0.00 | 92 | 1018.8 |
| 20260906115554 | 56 | 352 | 3.5 | 4.3 | 0.00 | 0.00 | 0.00 | 92 | 1018.9 |
| 20260906115050 | 56 | 15 | 6.1 | 6.1 | 0.00 | 0.00 | 0.00 | 92 | 1019.2 |
| 20260906114549 | 56 | 23 | 6.1 | 7.8 | 0.00 | 0.00 | 0.00 | 91 | 1018.9 |
| 20260906114045 | 56 | 2 | 4.3 | 7.0 | 0.00 | 0.00 | 0.00 | 92 | 1019.0 |
| 20260906113544 | 56 | 28 | 4.3 | 5.2 | 0.00 | 0.00 | 0.00 | 91 | 1018.8 |
| 20260906113039 | 56 | 27 | 2.6 | 4.3 | 0.00 | 0.00 | 0.00 | 91 | 1018.8 |
| 20260906112534 | 56 | 32 | 5.2 | 6.1 | 0.00 | 0.00 | 0.00 | 91 | 1018.9 |
| 20260906112031 | 56 | 42 | 5.2 | 7.0 | 0.00 | 0.00 | 0.00 | 91 | 1018.8 |
| 20260906111530 | 57 | 62 | 6.1 | 7.0 | 0.00 | 0.00 | 0.00 | 90 | 1018.9 |
| 20260906111026 | 57 | 42 | 7.8 | 8.7 | 0.00 | 0.00 | 0.00 | 90 | 1018.9 |
| 20260906110525 | 56 | 27 | 7.0 | 8.7 | 0.00 | 0.00 | 0.00 | 90 | 1018.9 |
| 20260906110025 | 57 | 43 | 6.1 | 6.1 | 0.00 | 0.00 | 0.00 | 89 | 1019.0 |
| 20260906105520 | 57 | 37 | 5.2 | 6.1 | 0.00 | 0.00 | 0.00 | 89 | 1018.9 |
| 20260906105016 | 57 | 32 | 7.0 | 8.7 | 0.00 | 0.00 | 0.00 | 89 | 1019.0 |
| 20260906104514 | 57 | 3 | 7.0 | 8.7 | 0.00 | 0.00 | 0.00 | 89 | 1018.9 |
| 20260906104009 | 57 | 23 | 7.0 | 8.7 | 0.00 | 0.00 | 0.00 | 89 | 1019.0 |
| 20260906103507 | 57 | 37 | 4.3 | 6.1 | 0.00 | 0.00 | 0.00 | 89 | 1019.0 |
| 20260906103003 | 57 | 24 | 5.2 | 6.1 | 0.00 | 0.00 | 0.00 | 89 | 1019.0 |
| 20260906102502 | 57 | 32 | 4.3 | 6.1 | 0.00 | 0.00 | 0.00 | 89 | 1019.1 |
| 20260906102002 | 57 | 33 | 6.1 | 7.0 | 0.00 | 0.00 | 0.00 | 88 | 1019.1 |
| 20260906101457 | 57 | 22 | 7.8 | 12.2 | 0.00 | 0.00 | 0.00 | 88 | 1019.0 |
| 20260906100953 | 57 | 2 | 7.0 | 7.8 | 0.00 | 0.00 | 0.00 | 89 | 1019.1 |
| 20260906100448 | 57 | 20 | 7.8 | 8.7 | 0.00 | 0.00 | 0.00 | 89 | 1019.0 |
| 20260906095948 | 57 | 30 | 9.6 | 11.3 | 0.00 | 0.00 | 0.00 | 89 | 1019.1 |
| 20260906095443 | 56 | 17 | 7.8 | 9.6 | 0.00 | 0.00 | 0.00 | 89 | 1019.0 |
| 20260906094938 | 57 | 8 | 6.1 | 7.8 | 0.00 | 0.00 | 0.00 | 89 | 1018.9 |
| 20260906094432 | 57 | 17 | 7.8 | 9.6 | 0.00 | 0.00 | 0.00 | 88 | 1019.0 |
| 20260906093928 | 57 | 23 | 8.7 | 13.9 | 0.00 | 0.00 | 0.00 | 88 | 1018.8 |
| 20260906093424 | 57 | 15 | 7.0 | 9.6 | 0.00 | 0.00 | 0.00 | 87 | 1018.9 |
| 20260906092924 | 57 | 0 | 9.6 | 12.2 | 0.00 | 0.00 | 0.00 | 87 | 1019.2 |
| 20260906092424 | 57 | 359 | 13.0 | 14.8 | 0.00 | 0.00 | 0.00 | 87 | 1019.2 |
| 20260906091920 | 57 | 341 | 6.1 | 8.7 | 0.00 | 0.00 | 0.00 | 88 | 1019.5 |
| 20260906091415 | 58 | 0 | 7.8 | 8.7 | 0.00 | 0.00 | 0.00 | 87 | 1019.6 |
| 20260906090912 | 58 | 321 | 7.8 | 9.6 | 0.00 | 0.00 | 0.00 | 86 | 1019.3 |
| 20260906090412 | 58 | 349 | 6.1 | 6.1 | 0.00 | 0.00 | 0.00 | 87 | 1019.5 |
| 20260906085906 | 58 | 18 | 7.8 | 8.7 | 0.00 | 0.00 | 0.00 | 86 | 1019.8 |
| 20260906085406 | 58 | 1 | 7.8 | 8.7 | 0.00 | 0.00 | 0.00 | 86 | 1019.8 |
| 20260906084905 | 57 | 4 | 7.0 | 8.7 | 0.00 | 0.00 | 0.00 | 89 | 1019.9 |
| 20260906084400 | 58 | 320 | 6.1 | 7.8 | 0.00 | 0.00 | 0.00 | 88 | 1020.0 |
| 20260906083854 | 57 | 312 | 9.6 | 11.3 | 0.00 | 0.00 | 0.00 | 87 | 1020.2 |
| 20260906083349 | 57 | 357 | 8.7 | 11.3 | 0.00 | 0.00 | 0.00 | 87 | 1019.9 |
| 20260906082849 | 57 | 355 | 5.2 | 7.0 | 0.00 | 0.00 | 0.00 | 88 | 1019.8 |
| 20260906082344 | 57 | 10 | 6.1 | 7.0 | 0.00 | 0.00 | 0.00 | 89 | 1019.8 |
| 20260906081841 | 57 | 359 | 7.8 | 8.7 | 0.00 | 0.00 | 0.00 | 89 | 1019.9 |
| 20260906081336 | 57 | 351 | 4.3 | 5.2 | 0.00 | 0.00 | 0.00 | 89 | 1020.0 |
| 20260906080832 | 57 | 359 | 5.2 | 7.0 | 0.00 | 0.00 | 0.00 | 89 | 1020.0 |
| 20260906080328 | 57 | 335 | 5.2 | 7.0 | 0.00 | 0.00 | 0.00 | 89 | 1020.0 |
| 20260906075827 | 57 | 13 | 5.2 | 7.0 | 0.00 | 0.00 | 0.00 | 89 | 1019.9 |
| 20260906075327 | 57 | 355 | 3.5 | 4.3 | 0.00 | 0.00 | 0.00 | 88 | 1019.8 |
| 20260906074823 | 57 | 23 | 5.2 | 6.1 | 0.00 | 0.00 | 0.00 | 89 | 1019.9 |
| 20260906074322 | 57 | 352 | 2.6 | 2.6 | 0.00 | 0.00 | 0.00 | 88 | 1019.9 |
| 20260906073821 | 57 | 349 | 4.3 | 6.1 | 0.00 | 0.00 | 0.00 | 88 | 1019.7 |
| 20260906073321 | 57 | 15 | 5.2 | 7.0 | 0.00 | 0.00 | 0.00 | 88 | 1019.6 |
| 20260906072818 | 57 | 11 | 4.3 | 6.1 | 0.00 | 0.00 | 0.00 | 88 | 1019.8 |
| 20260906072314 | 57 | 17 | 5.2 | 6.1 | 0.00 | 0.00 | 0.00 | 88 | 1019.8 |
| 20260906071809 | 57 | 18 | 3.5 | 5.2 | 0.00 | 0.00 | 0.00 | 88 | 1019.9 |
| 20260906071304 | 58 | 18 | 7.0 | 7.8 | 0.00 | 0.00 | 0.00 | 87 | 1019.9 |
| 20260906070801 | 58 | 29 | 7.0 | 7.8 | 0.00 | 0.00 | 0.00 | 86 | 1019.9 |
| 20260906070256 | 58 | 35 | 7.8 | 9.6 | 0.00 | 0.00 | 0.00 | 87 | 1019.9 |
| 20260906065755 | 58 | 23 | 6.1 | 8.7 | 0.00 | 0.00 | 0.00 | 87 | 1019.9 |
| 20260906065251 | 58 | 5 | 5.2 | 8.7 | 0.00 | 0.00 | 0.00 | 89 | 1020.4 |
| 20260906064747 | 58 | 351 | 6.1 | 7.0 | 0.00 | 0.00 | 0.00 | 87 | 1020.5 |
| 20260906064242 | 58 | 358 | 7.8 | 8.7 | 0.00 | 0.00 | 0.00 | 86 | 1020.5 |
| 20260906063737 | 58 | 358 | 7.0 | 9.6 | 0.00 | 0.00 | 0.00 | 88 | 1020.5 |
| 20260906063233 | 58 | 356 | 6.1 | 7.8 | 0.00 | 0.00 | 0.00 | 88 | 1020.7 |
| 20260906062728 | 58 | 8 | 7.0 | 7.8 | 0.00 | 0.00 | 0.00 | 87 | 1020.4 |
| 20260906062227 | 58 | 11 | 9.6 | 13.9 | 0.00 | 0.00 | 0.00 | 87 | 1020.3 |
| 20260906061723 | 58 | 15 | 8.7 | 9.6 | 0.00 | 0.00 | 0.00 | 87 | 1020.3 |
| 20260906061219 | 57 | 22 | 7.8 | 9.6 | 0.00 | 0.00 | 0.00 | 88 | 1020.2 |
| 20260906060714 | 57 | 20 | 6.1 | 8.7 | 0.00 | 0.00 | 0.00 | 89 | 1020.3 |
| 20260906060212 | 57 | 14 | 7.0 | 7.8 | 0.00 | 0.00 | 0.00 | 89 | 1020.5 |
| 20260906055707 | 57 | 13 | 5.2 | 6.1 | 0.00 | 0.09 | 0.09 | 89 | 1020.3 |
| 20260906055202 | 57 | 24 | 8.7 | 11.3 | 0.00 | 0.09 | 0.09 | 89 | 1020.3 |
| 20260906054658 | 57 | 3 | 7.8 | 8.7 | 0.00 | 0.09 | 0.09 | 88 | 1020.4 |
| 20260906054158 | 57 | 5 | 10.4 | 12.2 | 0.00 | 0.09 | 0.09 | 88 | 1020.5 |
| 20260906053655 | 57 | 6 | 11.3 | 15.6 | 0.00 | 0.09 | 0.09 | 88 | 1020.4 |
| 20260906053150 | 57 | 23 | 8.7 | 9.6 | 0.00 | 0.09 | 0.09 | 88 | 1020.1 |
| 20260906052645 | 56 | 3 | 9.6 | 11.3 | 0.00 | 0.09 | 0.09 | 87 | 1019.9 |
| 20260906052141 | 56 | 0 | 9.6 | 11.3 | 0.00 | 0.09 | 0.09 | 87 | 1020.1 |
| 20260906051637 | 56 | 30 | 7.8 | 9.6 | 0.00 | 0.09 | 0.09 | 87 | 1020.2 |
| 20260906051137 | 56 | 17 | 10.4 | 13.0 | 0.07 | 0.09 | 0.09 | 87 | 1020.1 |
| 20260906050633 | 56 | 3 | 7.8 | 11.3 | 0.07 | 0.09 | 0.09 | 88 | 1020.0 |
| 20260906050128 | 56 | 27 | 7.8 | 8.7 | 0.07 | 0.09 | 0.09 | 87 | 1019.9 |
| 20260906045626 | 57 | 9 | 10.4 | 12.2 | 0.07 | 0.08 | 0.08 | 86 | 1020.1 |
| 20260906045121 | 58 | 3 | 9.6 | 12.2 | 0.07 | 0.08 | 0.08 | 85 | 1019.8 |
| 20260906044617 | 58 | 21 | 11.3 | 13.9 | 0.00 | 0.07 | 0.07 | 83 | 1020.1 |
| 20260906044113 | 58 | 6 | 10.4 | 13.0 | 0.00 | 0.07 | 0.07 | 83 | 1020.5 |
| 20260906043609 | 58 | 357 | 7.0 | 8.7 | 0.00 | 0.07 | 0.07 | 83 | 1020.8 |
| 20260906043104 | 58 | 320 | 7.8 | 9.6 | 0.00 | 0.07 | 0.07 | 84 | 1019.9 |
| 20260906042603 | 58 | 356 | 8.7 | 8.7 | 0.00 | 0.07 | 0.07 | 85 | 1019.8 |
| 20260906042058 | 57 | 2 | 9.6 | 11.3 | 0.00 | 0.07 | 0.07 | 85 | 1019.5 |
| 20260906041554 | 57 | 23 | 9.6 | 13.9 | 0.00 | 0.07 | 0.07 | 86 | 1019.2 |
| 20260906041048 | 57 | 21 | 10.4 | 12.2 | 0.00 | 0.07 | 0.07 | 86 | 1019.3 |
| 20260906040544 | 58 | 21 | 10.4 | 13.0 | 0.00 | 0.07 | 0.07 | 85 | 1019.3 |
| 20260906040039 | 58 | 16 | 10.4 | 13.9 | 0.00 | 0.07 | 0.07 | 85 | 1019.3 |
| 20260906035534 | 58 | 28 | 9.6 | 11.3 | 0.00 | 0.07 | 0.07 | 85 | 1019.6 |
| 20260906035030 | 58 | 359 | 12.2 | 13.9 | 0.00 | 0.07 | 0.07 | 84 | 1019.8 |
| 20260906034530 | 58 | 5 | 11.3 | 13.0 | 0.00 | 0.07 | 0.07 | 84 | 1019.7 |
| 20260906034025 | 58 | 5 | 7.8 | 9.6 | 0.00 | 0.07 | 0.07 | 84 | 1019.8 |
| 20260906033520 | 58 | 351 | 7.0 | 7.8 | 0.00 | 0.07 | 0.07 | 83 | 1020.0 |
| 20260906033016 | 59 | 14 | 6.1 | 7.0 | 0.17 | 0.07 | 0.07 | 81 | 1020.1 |
| 20260906032513 | 59 | 359 | 10.4 | 12.2 | 0.17 | 0.07 | 0.07 | 79 | 1020.3 |
| 20260906032012 | 61 | 312 | 7.0 | 8.7 | 0.00 | 0.04 | 0.04 | 70 | 1020.4 |
| 20260906031508 | 61 | 13 | 5.2 | 6.1 | 0.00 | 0.04 | 0.04 | 68 | 1021.0 |
| 20260906031003 | 61 | 310 | 5.2 | 5.2 | 0.00 | 0.04 | 0.04 | 68 | 1020.8 |
| 20260906030457 | 61 | 21 | 7.8 | 9.6 | 0.00 | 0.04 | 0.04 | 68 | 1019.7 |
| 20260906025957 | 61 | 356 | 10.4 | 13.0 | 0.00 | 0.04 | 0.04 | 68 | 1019.0 |
| 20260906025456 | 61 | 7 | 11.3 | 13.0 | 0.00 | 0.04 | 0.04 | 68 | 1018.9 |
| 20260906024955 | 61 | 22 | 7.0 | 7.8 | 0.00 | 0.04 | 0.04 | 68 | 1018.9 |
| 20260906024450 | 61 | 14 | 8.7 | 11.3 | 0.00 | 0.04 | 0.04 | 67 | 1018.7 |
| 20260906023950 | 61 | 26 | 8.7 | 11.3 | 0.00 | 0.04 | 0.04 | 68 | 1018.6 |
| 20260906023447 | 61 | 28 | 9.6 | 11.3 | 0.00 | 0.04 | 0.04 | 68 | 1018.6 |
| 20260906022947 | 61 | 39 | 8.7 | 13.0 | 0.00 | 0.04 | 0.04 | 67 | 1018.5 |
| 20260906022442 | 61 | 22 | 9.6 | 13.9 | 0.00 | 0.04 | 0.04 | 67 | 1018.2 |
| 20260906021938 | 62 | 38 | 10.4 | 12.2 | 0.00 | 0.04 | 0.04 | 67 | 1018.4 |
| 20260906021438 | 62 | 44 | 7.8 | 11.3 | 0.00 | 0.04 | 0.04 | 66 | 1018.5 |
| 20260906020932 | 62 | 41 | 10.4 | 12.2 | 0.00 | 0.04 | 0.04 | 66 | 1018.6 |
| 20260906020427 | 62 | 26 | 9.6 | 13.9 | 0.00 | 0.04 | 0.04 | 65 | 1018.2 |
| 20260906015927 | 62 | 41 | 8.7 | 11.3 | 0.00 | 0.04 | 0.04 | 64 | 1018.4 |
| 20260906015426 | 63 | 49 | 6.1 | 7.8 | 0.00 | 0.04 | 0.04 | 64 | 1018.2 |
| 20260906014926 | 63 | 60 | 5.2 | 7.8 | 0.00 | 0.04 | 0.04 | 63 | 1018.4 |
| 20260906014426 | 63 | 35 | 7.8 | 8.7 | 0.00 | 0.04 | 0.04 | 63 | 1018.1 |
| 20260906013922 | 64 | 0 | 6.1 | 7.8 | 0.00 | 0.04 | 0.04 | 62 | 1018.2 |
| 20260906013417 | 64 | 28 | 6.1 | 7.0 | 0.00 | 0.04 | 0.04 | 61 | 1018.4 |
| 20260906012913 | 65 | 26 | 7.8 | 8.7 | 0.00 | 0.04 | 0.04 | 59 | 1018.4 |
| 20260906012408 | 65 | 28 | 7.0 | 8.7 | 0.00 | 0.04 | 0.04 | 58 | 1018.6 |
| 20260906011907 | 66 | 35 | 5.2 | 6.1 | 0.00 | 0.04 | 0.04 | 57 | 1018.1 |
| 20260906011402 | 66 | 30 | 7.0 | 9.6 | 0.00 | 0.04 | 0.04 | 57 | 1018.2 |
| 20260906010858 | 66 | 15 | 7.8 | 12.2 | 0.00 | 0.04 | 0.04 | 56 | 1018.4 |
| 20260906010354 | 66 | 23 | 4.3 | 6.1 | 0.00 | 0.04 | 0.04 | 56 | 1018.2 |
| 20260906005849 | 66 | 23 | 6.1 | 7.0 | 0.00 | 0.04 | 0.04 | 56 | 1018.5 |
| 20260906005348 | 67 | 1 | 6.1 | 7.8 | 0.00 | 0.04 | 0.04 | 56 | 1018.4 |
| 20260906004847 | 67 | 36 | 8.7 | 8.7 | 0.00 | 0.04 | 0.04 | 55 | 1018.2 |
| 20260906004347 | 67 | 27 | 7.8 | 9.6 | 0.00 | 0.04 | 0.04 | 55 | 1018.5 |
| 20260906003842 | 68 | 33 | 8.7 | 11.3 | 0.00 | 0.04 | 0.04 | 54 | 1018.5 |
| 20260906003338 | 68 | 30 | 8.7 | 9.6 | 0.00 | 0.04 | 0.04 | 53 | 1018.5 |
| 20260906002833 | 69 | 28 | 9.6 | 13.0 | 0.00 | 0.04 | 0.04 | 51 | 1018.4 |
| 20260906002332 | 70 | 27 | 7.8 | 11.3 | 0.00 | 0.04 | 0.04 | 50 | 1018.6 |
| 20260906001828 | 70 | 34 | 8.7 | 11.3 | 0.00 | 0.04 | 0.04 | 50 | 1018.2 |
| 20260906001324 | 70 | 41 | 9.6 | 11.3 | 0.00 | 0.04 | 0.04 | 50 | 1018.4 |
| 20260906000819 | 69 | 32 | 6.1 | 7.8 | 0.00 | 0.04 | 0.04 | 51 | 1018.1 |
| 20260906000314 | 70 | 54 | 7.0 | 7.8 | 0.00 | 0.04 | 0.04 | 50 | 1018.5 |
| 20260905235814 | 71 | 41 | 7.8 | 8.7 | 0.00 | 0.04 | 0.04 | 49 | 1018.5 |
| 20260905235314 | 71 | 30 | 9.6 | 12.2 | 0.00 | 0.04 | 0.04 | 48 | 1018.5 |
| 20260905234809 | 71 | 40 | 8.7 | 9.6 | 0.00 | 0.04 | 0.04 | 47 | 1018.7 |
| 20260905234304 | 73 | 59 | 6.1 | 7.8 | 0.00 | 0.04 | 0.04 | 45 | 1018.9 |
| 20260905233800 | 72 | 32 | 5.2 | 7.0 | 0.00 | 0.04 | 0.04 | 45 | 1018.6 |
| 20260905233259 | 72 | 53 | 5.2 | 7.0 | 0.00 | 0.04 | 0.04 | 46 | 1018.6 |
| 20260905232758 | 72 | 41 | 2.6 | 2.6 | 0.00 | 0.04 | 0.04 | 44 | 1018.7 |